| time (UTC) | temp C | wind direction | speed KPH | gust KPH | rain 1hr cm | rain 24hr cm | rain mn cm | humidity % | barometer mb |
| 20260903201522 | -17 | 254 | 3.2 | 6.4 | 0.00 | 0.00 | 0.00 | 1018.9 | |
| 20260903200021 | -17 | 254 | 0.0 | 6.4 | 0.00 | 0.00 | 0.00 | 1018.7 | |
| 20260903194521 | -17 | 320 | 0.0 | 8.0 | 0.00 | 0.00 | 0.00 | 1018.6 | |
| 20260903193020 | -17 | 268 | 4.8 | 9.7 | 0.00 | 0.00 | 0.00 | 1018.7 | |
| 20260903191525 | -17 | 341 | 4.8 | 12.9 | 0.00 | 0.00 | 0.00 | 1018.5 | |
| 20260903190016 | -17 | 41 | 4.8 | 8.0 | 0.00 | 0.00 | 0.00 | 1018.3 | |
| 20260903184516 | -17 | 19 | 0.0 | 16.1 | 0.00 | 0.00 | 0.00 | 1018.3 | |
| 20260903183016 | -17 | 322 | 0.0 | 14.5 | 0.00 | 0.00 | 0.00 | 1018.3 | |
| 20260903181512 | -17 | 331 | 8.0 | 14.5 | 0.00 | 0.00 | 0.00 | 1018.3 | |
| 20260903180015 | -17 | 16 | 9.7 | 20.9 | 0.00 | 0.00 | 0.00 | 1018.3 | |
| 20260903174504 | -17 | 357 | 9.7 | 20.9 | 0.00 | 0.00 | 0.00 | 1018.1 | |
| 20260903173105 | -17 | 30 | 4.8 | 17.7 | 0.00 | 0.00 | 0.00 | 1018.2 | |
| 20260903171601 | -17 | 41 | 11.3 | 19.3 | 0.00 | 0.00 | 0.00 | 1018.3 | |
| 20260903170050 | -17 | 28 | 0.0 | 14.5 | 0.00 | 0.00 | 0.00 | 1018.3 | |
| 20260903164548 | -17 | 58 | 9.7 | 17.7 | 0.00 | 0.00 | 0.00 | 1018.1 | |
| 20260903163043 | -17 | 63 | 11.3 | 20.9 | 0.00 | 0.00 | 0.00 | 1018.2 | |
| 20260903161537 | -17 | 21 | 14.5 | 24.1 | 0.00 | 0.00 | 0.00 | 1018.3 | |
| 20260903160033 | -17 | 359 | 12.9 | 27.4 | 0.00 | 0.00 | 0.00 | 1018.5 | |
| 20260903154529 | -17 | 41 | 8.0 | 24.1 | 0.00 | 0.00 | 0.00 | 1018.7 | |
| 20260903153024 | -17 | 54 | 12.9 | 22.5 | 0.00 | 0.00 | 0.00 | 1018.7 | |
| 20260903151521 | -17 | 66 | 9.7 | 24.1 | 0.00 | 0.00 | 0.00 | 1018.8 | |
| 20260903150016 | -17 | 41 | 11.3 | 20.9 | 0.00 | 0.00 | 0.00 | 1018.5 | |
| 20260903144511 | -17 | 41 | 9.7 | 24.1 | 0.00 | 0.00 | 0.00 | 1018.2 | |
| 20260903143006 | -17 | 32 | 16.1 | 22.5 | 0.00 | 0.00 | 0.00 | 1018.1 | |
| 20260903141501 | -17 | 52 | 9.7 | 22.5 | 0.00 | 0.00 | 0.00 | 1018.3 | |
| 20260903140058 | -17 | 46 | 9.7 | 22.5 | 0.00 | 0.00 | 0.00 | 1017.9 | |
| 20260903134601 | -17 | 26 | 16.1 | 25.7 | 0.00 | 0.00 | 0.00 | 1017.8 | |
| 20260903133104 | -17 | 36 | 17.7 | 25.7 | 0.00 | 0.00 | 0.00 | 1018.1 | |
| 20260903131544 | -17 | 60 | 14.5 | 22.5 | 0.00 | 0.00 | 0.00 | 1017.9 | |
| 20260903130055 | -17 | 46 | 14.5 | 25.7 | 0.00 | 0.00 | 0.00 | 1018.1 | |
| 20260903124550 | -17 | 25 | 19.3 | 29.0 | 0.00 | 0.00 | 0.00 | 1018.3 | |
| 20260903123032 | -17 | 36 | 9.7 | 22.5 | 0.00 | 0.00 | 0.00 | 1018.5 | |
| 20260903121532 | -17 | 60 | 9.7 | 17.7 | 0.00 | 0.00 | 0.00 | 1018.5 | |
| 20260903120022 | -17 | 10 | 8.0 | 20.9 | 0.00 | 0.00 | 0.00 | 1018.6 | |
| 20260903114518 | -17 | 27 | 3.2 | 20.9 | 0.00 | 0.00 | 0.00 | 1018.6 | |
| 20260903113013 | -17 | 36 | 8.0 | 19.3 | 0.00 | 0.00 | 0.00 | 1018.8 | |
| 20260903111508 | -17 | 46 | 12.9 | 19.3 | 0.00 | 0.00 | 0.00 | 1018.9 | |
| 20260903110004 | -17 | 46 | 9.7 | 19.3 | 0.00 | 0.00 | 0.00 | 1018.7 | |
| 20260903104604 | -17 | 41 | 6.4 | 14.5 | 0.00 | 0.00 | 0.00 | 1018.5 | |
| 20260903103056 | -17 | 185 | 0.0 | 0.0 | 0.00 | 0.00 | 0.00 | 1018.4 | |
| 20260903101554 | -17 | 185 | 0.0 | 0.0 | 0.00 | 0.00 | 0.00 | 1018.2 | |
| 20260903100049 | -17 | 185 | 0.0 | 0.0 | 0.00 | 0.00 | 0.00 | 1018.3 | |
| 20260903094550 | -17 | 185 | 0.0 | 0.0 | 0.00 | 0.00 | 0.00 | 1018.1 | |
| 20260903093038 | -17 | 185 | 0.0 | 0.0 | 0.00 | 0.00 | 0.00 | 1017.9 | |
| 20260903091535 | -17 | 185 | 0.0 | 0.0 | 0.00 | 0.00 | 0.00 | 1017.9 | |
| 20260903090037 | -17 | 185 | 0.0 | 0.0 | 0.00 | 0.00 | 0.00 | 1017.8 | |
| 20260903084531 | -17 | 185 | 0.0 | 0.0 | 0.00 | 0.00 | 0.00 | 1017.3 | |
| 20260903083022 | -17 | 185 | 0.0 | 0.0 | 0.00 | 0.00 | 0.00 | 1017.5 | |
| 20260903081518 | -17 | 185 | 0.0 | 0.0 | 0.00 | 0.00 | 0.00 | 1017.6 | |
| 20260903080012 | -17 | 185 | 0.0 | 0.0 | 0.00 | 0.00 | 0.00 | 1017.6 | |
| 20260903074507 | -17 | 185 | 0.0 | 0.0 | 0.00 | 0.00 | 0.00 | 1017.6 | |
| 20260903073005 | -17 | 185 | 0.0 | 0.0 | 0.00 | 0.00 | 0.00 | 1017.6 | |
| 20260903071620 | -17 | 185 | 0.0 | 4.8 | 0.00 | 0.00 | 0.00 | 1017.4 | |
| 20260903070055 | -17 | 183 | 0.0 | 8.0 | 0.00 | 0.00 | 0.00 | 1017.5 | |
| 20260903064550 | -17 | 196 | 4.8 | 9.7 | 0.00 | 0.00 | 0.00 | 1017.6 | |
| 20260903063049 | -17 | 195 | 6.4 | 9.7 | 0.00 | 0.00 | 0.00 | 1017.6 | |
| 20260903061542 | -17 | 183 | 0.0 | 0.0 | 0.00 | 0.00 | 0.00 | 1017.6 | |
| 20260903060108 | -17 | 107 | 0.0 | 0.0 | 0.00 | 0.00 | 0.00 | 1017.7 | |
| 20260903054535 | -17 | 107 | 0.0 | 1.6 | 0.00 | 0.00 | 0.00 | 1017.4 | |
| 20260903053029 | -17 | 94 | 0.0 | 0.0 | 0.00 | 0.00 | 0.00 | 1017.4 | |
| 20260903051524 | -17 | 94 | 1.6 | 6.4 | 0.00 | 0.00 | 0.00 | 1017.5 | |
| 20260903050020 | -17 | 200 | 0.0 | 3.2 | 0.00 | 0.00 | 0.00 | 1017.6 | |
| 20260903044515 | -17 | 200 | 1.6 | 11.3 | 0.00 | 0.00 | 0.00 | 1017.5 | |
| 20260903043022 | -17 | 232 | 4.8 | 11.3 | 0.00 | 0.00 | 0.00 | 1017.6 | |
| 20260903041507 | -17 | 212 | 9.7 | 20.9 | 0.00 | 0.00 | 0.00 | 1017.3 | |
| 20260903040003 | -17 | 191 | 16.1 | 22.5 | 0.00 | 0.00 | 0.00 | 1017.1 | |
| 20260903034558 | -17 | 222 | 12.9 | 19.3 | 0.00 | 0.00 | 0.00 | 1017.4 | |
| 20260903033051 | -17 | 225 | 4.8 | 9.7 | 0.00 | 0.00 | 0.00 | 1017.1 | |
| 20260903031547 | -17 | 252 | 6.4 | 11.3 | 0.00 | 0.00 | 0.00 | 1017.1 | |
| 20260903030043 | -17 | 215 | 8.0 | 14.5 | 0.00 | 0.00 | 0.00 | 1017.1 | |
| 20260903024529 | -17 | 210 | 11.3 | 16.1 | 0.00 | 0.00 | 0.00 | 1017.1 | |
| 20260903023042 | -17 | 219 | 8.0 | 9.7 | 0.00 | 0.00 | 0.00 | 1017.1 | |
| 20260903021521 | -17 | 231 | 0.0 | 0.0 | 0.00 | 0.00 | 0.00 | 1016.9 | |
| 20260903020015 | -17 | 231 | 0.0 | 0.0 | 0.00 | 0.00 | 0.00 | 1017.0 | |
| 20260903014510 | -17 | 231 | 0.0 | 9.7 | 0.00 | 0.00 | 0.00 | 1017.1 | |
| 20260903013006 | -17 | 232 | 4.8 | 9.7 | 0.00 | 0.00 | 0.00 | 1017.3 | |
| 20260903011501 | -17 | 238 | 4.8 | 8.0 | 0.00 | 0.00 | 0.00 | 1017.3 | |
| 20260903010057 | -17 | 237 | 3.2 | 9.7 | 0.00 | 0.00 | 0.00 | 1017.5 | |
| 20260903004554 | -17 | 223 | 6.4 | 12.9 | 0.00 | 0.00 | 0.00 | 1017.6 | |
| 20260903003048 | -17 | 235 | 4.8 | 8.0 | 0.00 | 0.00 | 0.00 | 1017.8 | |
| 20260903001549 | -17 | 236 | 6.4 | 11.3 | 0.00 | 0.00 | 0.00 | 1017.6 | |
| 20260903000040 | -17 | 246 | 6.4 | 9.7 | 0.00 | 0.00 | 0.00 | 1017.5 | |
| 20260902234550 | -17 | 241 | 4.8 | 8.0 | 0.00 | 0.00 | 0.00 | 1017.4 | |
| 20260902233032 | -17 | 241 | 0.0 | 0.0 | 0.00 | 0.00 | 0.00 | 1017.4 | |
| 20260902231612 | -17 | 241 | 0.0 | 6.4 | 0.00 | 0.00 | 0.00 | 1017.4 | |
| 20260902230108 | -17 | 241 | 3.2 | 8.0 | 0.00 | 0.00 | 0.00 | 1017.4 | |
| 20260902224554 | -17 | 266 | 1.6 | 8.0 | 0.00 | 0.00 | 0.00 | 1017.3 | |
| 20260902223054 | -17 | 36 | 0.0 | 0.0 | 0.00 | 0.00 | 0.00 | 1017.2 | |
| 20260902221553 | -17 | 53 | 0.0 | 9.7 | 0.00 | 0.00 | 0.00 | 1017.4 | |
| 20260902220101 | -17 | 65 | 4.8 | 14.5 | 0.00 | 0.00 | 0.00 | 1017.3 | |
| 20260902214552 | -17 | 67 | 0.0 | 6.4 | 0.00 | 0.00 | 0.00 | 1017.4 | |
| 20260902213052 | -17 | 251 | 0.0 | 0.0 | 0.00 | 0.00 | 0.00 | 1017.4 | |
| 20260902211554 | -17 | 269 | 0.0 | 0.0 | 0.00 | 0.00 | 0.00 | 1017.5 | |
| 20260902210055 | -17 | 275 | 3.2 | 8.0 | 0.00 | 0.00 | 0.00 | 1017.4 | |
| 20260902204553 | -17 | 219 | 0.0 | 6.4 | 0.00 | 0.00 | 0.00 | 1017.2 | |
| 20260902203046 | -17 | 41 | 4.8 | 14.5 | 0.00 | 0.00 | 0.00 | 1017.1 |